This is the latest recevied weather packets stored in our database for station/object KI4HRG. If no packets are shown the sender has not sent any weather packets the latest 10 day(s).
| Time | Temp. | Humidity | Pressure | Rain* | Wind** | Luminosity | Snow |
|---|---|---|---|---|---|---|---|
| 1777924206 | 25.56° C | 40% | 1014.3 hPa | 0 mm | - | 528 W/m² | - |
| 1777923902 | 25.56° C | 41% | 1014.4 hPa | 0 mm | - | 701 W/m² | - |
| 1777923597 | 25.56° C | 43% | 1014.4 hPa | 0 mm | - | 605 W/m² | - |
| 1777923295 | 26.11° C | 42% | 1014.3 hPa | 0 mm | - | 664 W/m² | - |
| 1777922993 | 25.56° C | 40% | 1014.6 hPa | 0 mm | - | 718 W/m² | - |
| 1777922690 | 25° C | 43% | 1014.6 hPa | 0 mm | - | 607 W/m² | - |
| 1777922389 | 26.67° C | 42% | 1014.7 hPa | 0 mm | - | 239 W/m² | - |
| 1777922087 | 26.67° C | 44% | 1014.7 hPa | 0 mm | - | 641 W/m² | - |
| 1777921782 | 25° C | 44% | 1014.9 hPa | 0 mm | - | 636 W/m² | - |
| 1777921478 | 25.56° C | 43% | 1014.8 hPa | 0 mm | - | 660 W/m² | - |
| 1777921175 | 25.56° C | 41% | 1015 hPa | 0 mm | - | 834 W/m² | - |
| 1777920872 | 25.56° C | 43% | 1015 hPa | 0 mm | - | 487 W/m² | - |
| 1777920568 | 25.56° C | 42% | 1015.2 hPa | 0 mm | - | 658 W/m² | - |
| 1777920264 | 26.11° C | 41% | 1015.2 hPa | 0 mm | - | 766 W/m² | - |
| 1777919960 | 25.56° C | 42% | 1015.3 hPa | 0 mm | - | 766 W/m² | - |
| 1777919657 | 25° C | 42% | 1015.3 hPa | 0 mm | - | 548 W/m² | - |
| 1777919355 | 26.11° C | 42% | 1015.5 hPa | 0 mm | - | 777 W/m² | - |
| 1777919052 | 24.44° C | 43% | 1015.6 hPa | 0 mm | - | 759 W/m² | - |
| 1777918749 | 25° C | 43% | 1015.8 hPa | 0 mm | - | 786 W/m² | - |
| 1777918446 | 25.56° C | 41% | 1015.8 hPa | 0 mm | - | 738 W/m² | - |
| 1777918145 | 25.56° C | 42% | 1015.8 hPa | 0 mm | - | 707 W/m² | - |
| 1777917843 | 24.44° C | 45% | 1015.7 hPa | 0 mm | - | 785 W/m² | - |
| 1777917541 | 25.56° C | 44% | 1015.8 hPa | 0 mm | - | 639 W/m² | - |
| 1777917237 | 25.56° C | 45% | 1015.9 hPa | 0 mm | - | 770 W/m² | - |
| 1777916935 | 23.89° C | 46% | 1016.1 hPa | 0 mm | - | 730 W/m² | - |
* Rain latest hour (hover to see other rain measurements)
** Current wind speed in m/s (hover to see current wind gust speed)